Location: Campo Alegre
(10.4289°N, 66.6519°W)
Time: 20:26:34
(UTC+00:00)

Hubble Space Telescope - Visible Passes

Search period start: 19 January 2026 00:00
Search period end: 29 January 2026 00:00
Orbit: 479 x 481 km, 28.5° (Epoch: 19 January)

Date Brightness Start Highest point End Pass type
(mag) Time Alt. Az. Time Alt. Az. Time Alt. Az.
19 Jan 3.2 00:26:17 10° WNW 00:27:24 16° WNW 00:27:24 16° WNW visible
19 Jan 2.7 08:53:49 23° SSE 08:53:49 23° SSE 08:55:29 10° SE visible
19 Jan 2.3 23:56:34 10° WNW 23:59:30 22° NNW 23:59:30 22° NNW visible
20 Jan 2.4 23:26:50 10° WNW 23:29:48 22° NNW 23:31:34 16° NNE visible
21 Jan 2.4 22:57:05 10° WNW 23:00:02 21° NNW 23:02:59 10° NNE visible
